Simultaneous Nadir Overpasses (SNOs) Predictions

Prediction of SNOs between METOP-B and NOAA-19 Satellite Orbit:

Table of predicted SNOs for the next 14.0 days since TLE Epoch: 4/3/2021
Index Date (METOP-B) Time (METOP-B) Lat,Lon (METOP-B) SZA (METOP-B ) Date (NOAA-19) Time (NOAA-19) Lat,Lon (NOAA-19) SZA (NOAA-19 ) Distance(km) Time Diff (sec)
1 04/05/2021 13:42:18 -80.48,-178.08 104.82 04/05/2021 13:41:16 -80.46,-178.17 104.86 2.58 62
2 04/05/2021 14:32:59 80.47, -10.81 75.17 04/05/2021 14:32:11 80.45, -10.79 75.14 2.22 48
3 04/05/2021 15:23:40 -80.47, 156.43 104.86 04/05/2021 15:23:16 -80.45, 156.47 104.88 1.77 24
4 04/05/2021 16:14:21 80.46, -36.30 75.12 04/05/2021 16:14:11 80.45, -36.16 75.11 3.12 10
5 04/05/2021 17:05:02 -80.45, 130.94 104.91 04/05/2021 17:05:16 -80.44, 131.11 104.90 3.28 14
6 04/05/2021 17:55:43 80.45, -61.79 75.07 04/05/2021 17:56:12 80.46, -61.86 75.08 1.50 29
7 04/05/2021 18:46:24 -80.44, 105.45 104.96 04/05/2021 18:47:17 -80.45, 105.40 104.94 1.59 53
8 04/05/2021 19:37:05 80.44, -87.27 75.02 04/05/2021 19:38:12 80.45, -87.22 75.06 1.57 67
9 04/16/2021 15:46:16 80.48, -29.10 71.19 04/16/2021 15:45:10 80.48, -29.06 71.17 0.80 66
10 04/16/2021 16:36:57 -80.47, 138.15 108.84 04/16/2021 16:36:14 -80.48, 138.04 108.85 2.40 43
11 04/16/2021 17:27:38 80.46, -54.59 71.14 04/16/2021 17:27:10 80.47, -54.42 71.15 3.19 28
12 04/16/2021 18:18:19 -80.46, 112.66 108.89 04/16/2021 18:18:14 -80.48, 112.68 108.87 1.83 5
13 04/16/2021 19:08:59 80.48, -79.75 71.14 04/16/2021 19:09:10 80.46, -79.78 71.13 1.88 11
14 04/16/2021 19:59:41 -80.45, 87.17 108.93 04/16/2021 20:00:14 -80.47, 87.31 108.89 3.45 33
15 04/16/2021 20:50:21 80.47,-105.24 71.10 04/16/2021 20:51:10 80.46,-105.14 71.11 2.26 49



Historial Predications of SNOs between METOP-B and NOAA-19
